Weather in Rudnytsia

Ukraine / Vinnytsia Region     48°15′32″N   28°56′10″E
temp.,
°C
wind,
m/s
gust,
m/s
humid.,
%
clouds,
%
prec.,
mm/h
press.,
hPa
HPBL,
m
10 may, mon
mon1000:00+8sse22575 0.0 102715
03:00+7sse22611 0.0 102721
06:00+6se22653 0.0 102718
09:00+12se34555 0.0 1027362
12:00+15se44465 0.0 10261474
15:00+17se33431 0.0 10251671
18:00+17ese22451 0.0 10231570
21:00+11e34630 0.0 102450
11 may, tue
tue1100:00+9e47690 0.0 1024105
03:00+7e35720 0.0 102472
06:00+6ne33730 0.0 102343
09:00+12ne46575 0.0 1022497
12:00+16nne45495 0.0 1020894
15:00+18nne445625 0.0 10181149
18:00+18nne556227 0.0 10171186
21:00+13nne378896 0.0 1016127
12 may, wed
wed1200:00+12ene599670 0.1 1016339
03:00+8ene599731 0.1 1015333
06:00+6ene510945 0.0 1016361
09:00+9e687585 0.0 1016956
12:00+10e5664100 0.1 10151265
15:00+12e565990 0.1 10141382
18:00+12ese455744 0.0 10131429
21:00+8e34740 0.0 101355
13 may, thu
thu1300:00+7se357561 0.0 101371
03:00+8se386994 0.0 1012216
06:00+8se41074100 0.0 1011284
09:00+10se51073100 0.0 1011431
12:00+13sse4771100 0.2 1010886
15:00+14sse5972100 0.2 10091299
18:00+13se2789100 1.5 1008306
21:00+11sw229481 4.0 100823
14 may, fri
fri1400:00+10se229599 0.0 100828
03:00+9se229356 0.0 100815
06:00+9sse239061 0.0 100844
09:00+14s35825 0.0 1008403
12:00+18s456477 0.1 10091420
15:00+19sw4560100 1.7 10081304
18:00+19wsw3464100 0.4 10091079
21:00+14wsw22844 1.4 101015